Location: Goettingen
(51.5300°N, 9.9433°E)
Time: 20:51:16
(UTC+02:00)

ISS - Pass Details

Date: 19 July 2019
Orbit: 409 x 418 km, 51.6° (Epoch: 20 July)

Event Time Altitude Azimuth Distance (km) Brightness Sun altitude
Rises 02:15:31 0° 281° (W) 2,350 0.0 -16.7°
Reaches altitude 10° 02:17:37 10° 279° (W) 1,485 -1.0 -16.7°
Maximum altitude 02:20:56 72° 195° (SSW) 437 -4.0 -16.6°
Drops below altitude 10° 02:24:15 10° 111° (ESE) 1,477 -1.1 -16.4°
Sets 02:26:20 0° 109° (ESE) 2,336 0.0 -16.4°
